George Bush Intercontinental Houston Airport
KIAH : rendu visible

Aérodrome :











RETROUVEZ-NOUS SUR...

 
LOGIN :

S'inscrire | Disclaimer

   EN    FR    IT 

 









Légende :    VFR   VFR Marginal   IFR   IFR Intensif   IFR Très Intensif
Visi : 
Plafond : 
>= 8 km
>= 3000ft
5 à 8 km
1000 à 3000 ft
1500m à 5 km
500 à 1000 ft
800 à 1500m
200 à 500 ft
< 800m
< 200 ft
Symboles :   Orages  Brouillard  Fortes neiges  Fortes précipitations  Vent > 20 kt






- Altitude de l'aérodrome : 97 ft
- Code IATA : IAH


KIAH - George Bush Intercontinental Houston

DERNIER METAR :
  • 070353Z 01005KT 10SM FEW050 FEW120 28/22 A2979 RMK AO2 SLP085 T02830222

METARs EXPIRÉS :
  • 070253Z 35003KT 10SM FEW048 SCT120 28/23 A2978 RMK AO2 SLP082 T02830228 51009
  • 070153Z 35005KT 10SM FEW050 FEW120 SCT250 29/22 A2977 RMK AO2 SLP079 T02890217

TAF KIAH
Valide du 07 à 03h jusqu'au 08 à 06h UTC


070301Z 0703/0806 VRB04KT P6SM FEW050 SCT250
FM071400 02009KT P6SM FEW035 SCT250
FM072100 01010KT P6SM VCTS BKN060CB
FM080200 36005KT P6SM FEW060
FIR KZHU / Amérique du Nord



MET'MAP, la Météo Aéronautique d'un coup d'oeil ! - Copyright ORBIFLY Décembre 2007 - Disclaimer

ORBIFLY MET'MAP TEAM :

Programmation & Développement : Alexandra Zaïnal
Sur une idée originale de : Baudouin d'Aumeries
Assistance à la programmation : Marc-Olivier Méhu
Soutien technique & logistique : Manuel Goepfert

Contact : metmap@orbifly.com




SOURCES & CREDITS :

   NOAA       Earth
Advisory